,

(GMT )
Manston

Weather History for EGMH - December, 2012

Change the Weather History Date:

Sunday, December 16, 2012

  Actual Average Record
Temperature  
Mean Temperature 45 °F -  
Max Temperature 49 °F - - ()
Min Temperature 41 °F - - ()
Degree Days  
Heating Degree Days 20    
Moisture  
Dew Point 42 °F    
Average Humidity 89    
Maximum Humidity 93    
Minimum Humidity 75    
Precipitation  
Precipitation 0.03 in - - ()
Sea Level Pressure  
Sea Level Pressure 29.56 in    
Wind  
Wind Speed 7 mph ()    
Max Wind Speed 13 mph    
Max Gust Speed -    
Visibility 7.5 miles    
Events Rain    
T = Trace of Precipitation, MM = Missing Value Source: Averaged Metar Reports

Daily Weather History Graph

Daily Weather History Graph

Search for Another Location

Airport or City:

Trip Planner

Search our weather history database for the weather conditions in past years. The results will help you decide how hot, cold, wet, or windy it might be!

Date:

Astronomy

Dec. 16, 2012 Rise Set
Actual Time 7:54 AM GMT 3:46 PM GMT
Civil Twilight 7:14 AM GMT 4:26 PM GMT
Nautical Twilight 6:31 AM GMT 5:09 PM GMT
Astronomical Twilight 5:50 AM GMT 5:50 PM GMT
Moon 9:58 AM GMT (12/16) 8:05 PM GMT (12/16)
Length of Visible Light 9h 12m
Length of Day
7h 52m
Waxing Crescent, 14% of the Moon is Illuminated
Dec 16
Waxing Crescent
Dec 20
First Quarter
Dec 28
Full
Jan 5
Last Quarter
Jan 11
New

Hourly Weather History & Observations

Time (GMT) Temp. Windchill Dew Point Humidity Pressure Visibility Wind Dir Wind Speed Gust Speed Precip Events Conditions
2:50 AM 41 °F - 39 °F 92% 29.51 in 9 mi SW 10.4 mph - -  
5:50 AM 43 °F - 41 °F 88% 29.54 in 12 mi SSW 8.1 mph - -  
7:20 AM 42.8 °F 37.5 °F 41.0 °F 93% 29.53 in 6.2 mi SW 9.2 mph - N/A   Partly Cloudy
7:50 AM 41.0 °F 36.4 °F 39.2 °F 93% 29.56 in 6.2 mi SW 6.9 mph - N/A   Partly Cloudy
8:20 AM 41.0 °F 37.1 °F 39.2 °F 93% 29.56 in 6.2 mi SW 5.8 mph - N/A   Scattered Clouds
8:50 AM 42 °F - 40 °F 92% 29.57 in 14 mi SSW 5.8 mph - -   Scattered Clouds
8:50 AM 42.8 °F 41.1 °F 41.0 °F 93% 29.56 in 6.2 mi SW 3.5 mph - N/A   Mostly Cloudy
9:20 AM 42.8 °F 39.3 °F 41.0 °F 93% 29.56 in 6.2 mi SW 5.8 mph - N/A   Mostly Cloudy
9:50 AM 44.6 °F 41.4 °F 42.8 °F 93% 29.56 in 6.2 mi SW 5.8 mph - N/A   Mostly Cloudy
10:20 AM 44.6 °F 40.2 °F 42.8 °F 93% 29.59 in 6.2 mi SW 8.1 mph - N/A   Mostly Cloudy
10:50 AM 46.4 °F 42.4 °F 44.6 °F 93% 29.59 in 6.2 mi SW 8.1 mph - N/A   Mostly Cloudy
11:20 AM 48.2 °F - 44.6 °F 87% 29.59 in 6.2 mi SW 8.1 mph - N/A   Partly Cloudy
11:50 AM 48 °F - 43 °F 75% 29.59 in 13 mi WSW 12.7 mph - -  
11:50 AM 48.2 °F - 42.8 °F 82% 29.56 in 6.2 mi WSW 11.5 mph - N/A   Partly Cloudy
12:20 PM 48.2 °F - 44.6 °F 87% 29.56 in 6.2 mi WSW 9.2 mph - N/A   Partly Cloudy
12:50 PM 48.2 °F - 44.6 °F 87% 29.56 in 6.2 mi SW 12.7 mph - N/A   Partly Cloudy
1:20 PM 50.0 °F - 44.6 °F 82% 29.56 in 6.2 mi SW 12.7 mph - N/A   Partly Cloudy
1:50 PM 50.0 °F - 44.6 °F 82% 29.56 in 6.2 mi SW 9.2 mph - N/A   Partly Cloudy
2:20 PM 48.2 °F - 42.8 °F 82% 29.56 in 6.2 mi SSW 9.2 mph - N/A   Partly Cloudy
2:50 PM 46 °F - 42 °F 79% 29.58 in 15 mi SSW 6.9 mph - -  
2:50 PM 46.4 °F 43.5 °F 42.8 °F 87% 29.56 in 6.2 mi South 5.8 mph - N/A   Partly Cloudy
3:20 PM 46.4 °F 41.9 °F 42.8 °F 87% 29.56 in 6.2 mi SSW 9.2 mph - N/A   Partly Cloudy
3:50 PM 44.6 °F 41.4 °F 41.0 °F 87% 29.56 in 6.2 mi South 5.8 mph - N/A   Partly Cloudy
4:20 PM 44.6 °F 41.4 °F 41.0 °F 87% 29.56 in 6.2 mi South 5.8 mph - N/A   Partly Cloudy
4:50 PM 42.8 °F 38.6 °F 41.0 °F 93% 29.56 in 6.2 mi SSE 6.9 mph - N/A   Partly Cloudy
5:20 PM 42.8 °F 38.6 °F 41.0 °F 93% 29.56 in 6.2 mi South 6.9 mph - N/A   Partly Cloudy
5:50 PM 42 °F - 40 °F 92% 29.57 in 7 mi South 8.1 mph - -   Scattered Clouds
5:50 PM 42.8 °F 38.6 °F 41.0 °F 93% 29.56 in 6.2 mi South 6.9 mph - N/A   Partly Cloudy
8:50 PM 42 °F - 40 °F 88% 29.55 in 12 mi SSE 9.2 mph - -   Scattered Clouds
11:50 PM 45 °F - 43 °F 90% 29.54 in 8 mi SSW 10.4 mph - - Rain Rain